Location: *
(48.4333°N, 5.0333°W)
Time: 17:55:12
(UTC+00:00)

LilacSat-2 - Pass Details

Date: 29 October 2021
Orbit: 511 x 532 km, 97.5° (Epoch: 29 November)

Event Time Altitude Azimuth Distance (km) Brightness Sun altitude
Rises 05:01:42 0° 32° (NNE) 2,635 ? -20.4°
Reaches altitude 10° 05:04:55 10° 63° (ENE) 1,743 ? -19.8°
Maximum altitude 05:06:35 13° 89° (E) 1,584 ? -19.5°
Drops below altitude 10° 05:08:15 10° 116° (ESE) 1,738 ? -19.3°
Sets 05:11:26 0° 146° (SE) 2,621 ? -18.7°
